When you browse on this site, cookies collect data to enhance your experience and personalize the content and advertising you see.
Visit our Privacy Policy to learn more. By continuing to use the site, you agree to this use of cookies and data.
  • In Deutschland
  • Länderverzeichnis
  • Für 7 Tage
  • Wassertemperatur
  • Satellitenkarten
  • Wetterkarte
  • Widgets
  • user-avatar
    Anmelden

    Stündliche Wetter Parelhas

    Heute, 18 Dezember, Dienstag

    Zeit Temperatur Niederschläge Wind Luftdruck Luftfeuchtigkeit
    00:00 +27°C° 0 mm 7 m/S 736 mmHg 73%
    01:00 +27°C° 0 mm 7 m/S 736 mmHg 74%
    02:00 +27°C° 0 mm 6 m/S 736 mmHg 75%
    03:00 +27°C° 0 mm 6 m/S 736 mmHg 76%
    04:00 +26°C° 0 mm 6 m/S 735 mmHg 77%
    05:00 +26°C° 0 mm 6 m/S 735 mmHg 77%
    06:00 +26°C° 0 mm 6 m/S 736 mmHg 77%
    07:00 +26°C° 0 mm 6 m/S 736 mmHg 77%
    08:00 +28°C° 0 mm 7 m/S 736 mmHg 69%
    09:00 +30°C° 0 mm 7 m/S 736 mmHg 61%
    10:00 +33°C° 0 mm 7 m/S 737 mmHg 51%
    11:00 +34°C° 0 mm 7 m/S 736 mmHg 47%
    12:00 +35°C° 0 mm 7 m/S 736 mmHg 42%
    13:00 +36°C° 0 mm 7 m/S 735 mmHg 38%
    14:00 +36°C° 0 mm 7 m/S 735 mmHg 37%
    15:00 +36°C° 0 mm 7 m/S 735 mmHg 37%
    16:00 +38°C° 0 mm 7 m/S 734 mmHg 37%
    17:00 +35°C° 0 mm 7 m/S 734 mmHg 41%
    18:00 +34°C° 0 mm 7 m/S 734 mmHg 46%
    19:00 +33°C° 0 mm 8 m/S 734 mmHg 51%
    20:00 +31°C° 0 mm 8 m/S 735 mmHg 56%
    21:00 +29°C° 0 mm 8 m/S 735 mmHg 62%
    22:00 +28°C° 0 mm 8 m/S 736 mmHg 67%
    23:00 +28°C° 0 mm 8 m/S 736 mmHg 69%

    Morgen, 19 Dezember, Mittwoch

    Zeit Temperatur Niederschläge Wind Luftdruck Luftfeuchtigkeit
    00:00 +27°C° 0 mm 8 m/S 736 mmHg 71%
    01:00 +26°C° 0 mm 8 m/S 736 mmHg 73%
    02:00 +26°C° 0 mm 8 m/S 735 mmHg 75%
    03:00 +26°C° 0 mm 7 m/S 735 mmHg 76%
    04:00 +24°C° 0 mm 7 m/S 735 mmHg 77%
    05:00 +24°C° 0 mm 7 m/S 735 mmHg 77%
    06:00 +24°C° 0 mm 7 m/S 735 mmHg 77%
    07:00 +24°C° 0 mm 7 m/S 735 mmHg 77%
    08:00 +27°C° 0 mm 7 m/S 736 mmHg 67%
    09:00 +29°C° 0 mm 7 m/S 736 mmHg 57%
    10:00 +32°C° 0 mm 7 m/S 736 mmHg 47%
    11:00 +33°C° 0 mm 7 m/S 736 mmHg 42%
    12:00 +35°C° 0 mm 6 m/S 735 mmHg 36%
    13:00 +36°C° 0 mm 6 m/S 735 mmHg 31%
    14:00 +38°C° 0 mm 6 m/S 734 mmHg 30%
    15:00 +38°C° 0 mm 6 m/S 734 mmHg 30%
    16:00 +38°C° 0 mm 6 m/S 733 mmHg 29%
    17:00 +36°C° 0 mm 6 m/S 733 mmHg 35%
    18:00 +35°C° 0 mm 7 m/S 733 mmHg 40%
    19:00 +33°C° 0 mm 7 m/S 734 mmHg 46%
    20:00 +32°C° 0 mm 7 m/S 734 mmHg 52%
    21:00 +29°C° 0 mm 8 m/S 734 mmHg 59%
    22:00 +28°C° 0 mm 8 m/S 735 mmHg 66%
    23:00 +28°C° 0 mm 8 m/S 735 mmHg 68%

    übermorgen, 20 Dezember, Donnerstag

    Zeit Temperatur Niederschläge Wind Luftdruck Luftfeuchtigkeit
    00:00 +27°C° 0 mm 8 m/S 734 mmHg 70%
    01:00 +26°C° 0 mm 7 m/S 734 mmHg 71%
    02:00 +26°C° 0 mm 7 m/S 734 mmHg 73%
    03:00 +26°C° 0 mm 7 m/S 734 mmHg 74%
    04:00 +26°C° 0 mm 6 m/S 733 mmHg 75%
    05:00 +26°C° 0 mm 6 m/S 734 mmHg 76%
    06:00 +26°C° 0 mm 6 m/S 734 mmHg 76%
    07:00 +26°C° 0 mm 6 m/S 735 mmHg 76%
    08:00 +28°C° 0 mm 6 m/S 735 mmHg 68%
    09:00 +30°C° 0 mm 6 m/S 735 mmHg 59%
    10:00 +33°C° 0 mm 6 m/S 736 mmHg 50%
    11:00 +34°C° 0 mm 6 m/S 735 mmHg 47%
    12:00 +35°C° 0 mm 6 m/S 735 mmHg 43%
    13:00 +36°C° 0 mm 5 m/S 735 mmHg 39%
    14:00 +36°C° 0 mm 5 m/S 734 mmHg 40%
    15:00 +36°C° 0 mm 5 m/S 734 mmHg 41%
    16:00 +35°C° 0 mm 5 m/S 733 mmHg 42%
    17:00 +34°C° 0.2 mm 6 m/S 733 mmHg 47%
    18:00 +33°C° 0.2 mm 7 m/S 734 mmHg 52%
    19:00 +32°C° 0.2 mm 8 m/S 734 mmHg 57%
    20:00 +31°C° 0 mm 8 m/S 734 mmHg 61%
    21:00 +29°C° 0 mm 8 m/S 735 mmHg 65%
    22:00 +28°C° 0 mm 8 m/S 735 mmHg 69%
    23:00 +28°C° 0 mm 8 m/S 735 mmHg 70%

    21 Dezember, Freitag

    Zeit Temperatur Niederschläge Wind Luftdruck Luftfeuchtigkeit
    00:00 +27°C° 0 mm 8 m/S 734 mmHg 71%
    01:00 +27°C° 0 mm 7 m/S 734 mmHg 73%
    02:00 +27°C° 0 mm 7 m/S 734 mmHg 74%
    03:00 +27°C° 0 mm 7 m/S 733 mmHg 75%
    04:00 +26°C° 0 mm 6 m/S 733 mmHg 76%
    05:00 +26°C° 0 mm 6 m/S 733 mmHg 76%
    06:00 +26°C° 0 mm 6 m/S 734 mmHg 77%
    07:00 +26°C° 0 mm 6 m/S 734 mmHg 77%
    08:00 +28°C° 0 mm 6 m/S 735 mmHg 70%
    09:00 +29°C° 0 mm 6 m/S 735 mmHg 63%
    10:00 +32°C° 0 mm 6 m/S 735 mmHg 55%
    11:00 +33°C° 0 mm 6 m/S 735 mmHg 51%
    12:00 +35°C° 0 mm 6 m/S 734 mmHg 46%
    13:00 +36°C° 0 mm 6 m/S 734 mmHg 41%
    14:00 +36°C° 0 mm 6 m/S 733 mmHg 41%
    15:00 +36°C° 0 mm 6 m/S 733 mmHg 41%
    16:00 +36°C° 0 mm 6 m/S 732 mmHg 41%
    17:00 +35°C° 0 mm 6 m/S 733 mmHg 45%
    18:00 +34°C° 0 mm 7 m/S 733 mmHg 48%
    19:00 +33°C° 0 mm 7 m/S 733 mmHg 52%
    20:00 +30°C° 0 mm 7 m/S 734 mmHg 58%
    21:00 +29°C° 0 mm 7 m/S 734 mmHg 63%
    22:00 +28°C° 0 mm 8 m/S 735 mmHg 69%
    23:00 +28°C° 0 mm 7 m/S 734 mmHg 71%

    22 Dezember, Samstag

    Zeit Temperatur Niederschläge Wind Luftdruck Luftfeuchtigkeit
    00:00 +27°C° 0 mm 7 m/S 734 mmHg 72%
    01:00 +27°C° 0 mm 7 m/S 734 mmHg 74%
    02:00 +26°C° 0 mm 7 m/S 733 mmHg 76%
    03:00 +26°C° 0 mm 7 m/S 733 mmHg 77%
    04:00 +26°C° 0 mm 7 m/S 733 mmHg 79%
    05:00 +26°C° 0 mm 7 m/S 733 mmHg 79%
    06:00 +26°C° 0 mm 7 m/S 734 mmHg 79%
    07:00 +26°C° 0 mm 6 m/S 734 mmHg 79%
    08:00 +28°C° 0 mm 6 m/S 734 mmHg 71%
    09:00 +29°C° 0 mm 6 m/S 735 mmHg 63%
    10:00 +32°C° 0 mm 6 m/S 735 mmHg 55%
    11:00 +33°C° 0 mm 6 m/S 734 mmHg 49%
    12:00 +35°C° 0 mm 6 m/S 734 mmHg 43%
    13:00 +36°C° 0 mm 6 m/S 734 mmHg 37%
    14:00 +36°C° 0 mm 6 m/S 733 mmHg 38%
    15:00 +36°C° 0 mm 6 m/S 732 mmHg 38%
    16:00 +36°C° 0 mm 6 m/S 732 mmHg 39%
    17:00 +35°C° 0 mm 6 m/S 732 mmHg 44%
    18:00 +34°C° 0 mm 7 m/S 732 mmHg 50%
    19:00 +32°C° 0 mm 7 m/S 733 mmHg 55%
    20:00 +30°C° 0 mm 7 m/S 733 mmHg 61%
    21:00 +29°C° 0 mm 7 m/S 734 mmHg 66%
    22:00 +28°C° 0 mm 7 m/S 734 mmHg 71%
    23:00 +28°C° 0 mm 7 m/S 734 mmHg 73%

    23 Dezember, Sonntag

    Zeit Temperatur Niederschläge Wind Luftdruck Luftfeuchtigkeit
    00:00 +28°C° 0 mm 7 m/S 733 mmHg 74%
    01:00 +27°C° 0 mm 7 m/S 733 mmHg 76%
    02:00 +27°C° 0 mm 6 m/S 733 mmHg 77%
    03:00 +27°C° 0 mm 6 m/S 733 mmHg 77%
    04:00 +26°C° 0 mm 6 m/S 733 mmHg 78%
    05:00 +26°C° 0 mm 6 m/S 733 mmHg 78%
    06:00 +26°C° 0 mm 5 m/S 734 mmHg 78%
    07:00 +26°C° 0 mm 5 m/S 734 mmHg 78%
    08:00 +28°C° 0 mm 5 m/S 734 mmHg 72%
    09:00 +29°C° 0 mm 5 m/S 735 mmHg 67%
    10:00 +30°C° 0 mm 5 m/S 735 mmHg 61%
    11:00 +32°C° 0 mm 5 m/S 735 mmHg 55%
    12:00 +33°C° 0 mm 5 m/S 734 mmHg 49%
    13:00 +35°C° 0 mm 5 m/S 734 mmHg 43%
    14:00 +35°C° 0 mm 5 m/S 733 mmHg 42%
    15:00 +35°C° 0 mm 5 m/S 733 mmHg 40%
    16:00 +35°C° 0 mm 5 m/S 732 mmHg 39%
    17:00 +34°C° 0 mm 5 m/S 732 mmHg 44%
    18:00 +33°C° 0 mm 6 m/S 733 mmHg 49%
    19:00 +32°C° 0 mm 6 m/S 733 mmHg 55%
    20:00 +30°C° 0 mm 6 m/S 733 mmHg 60%
    21:00 +29°C° 0 mm 6 m/S 734 mmHg 65%
    22:00 +29°C° 0 mm 6 m/S 734 mmHg 70%
    23:00 +28°C° 0 mm 6 m/S 734 mmHg 72%
    Mehr zeigen